BAW882 EGKK-EBCI

Flight info

Callsign BAW882
Flight time 0h 40m
Altitude 25000
Route ODVIK Y311 DVR L9 KONAN UL607 KOK
Aircraft B77W/H-SDE1E2E3FGHIJ2J3J4J5M1RWXY/LB1D1

Departure

Time 2026-05-06 19:21
Airport London Gatwick Airport (EGKK)

Arrival

Time 2026-05-06 20:02
Airport Brussels South Charleroi Airport (EBCI)
Time Latitude Longitude Altitude Speed Heading
2026-05-06 18:53 51.15861 -0.17302 209 ft 0 kts 348°
2026-05-06 18:58 51.15851 -0.17299 209 ft 3 kts 348°
2026-05-06 18:58 51.15833 -0.17292 213 ft 3 kts 333°
2026-05-06 18:58 51.15818 -0.17274 222 ft 2 kts 297°
2026-05-06 18:58 51.15812 -0.17247 217 ft 3 kts 264°
2026-05-06 18:59 51.15813 -0.17242 221 ft 0 kts 262°
2026-05-06 19:07 51.15811 -0.17260 218 ft 8 kts 262°
2026-05-06 19:07 51.15796 -0.17420 211 ft 11 kts 265°
2026-05-06 19:07 51.15766 -0.17497 221 ft 7 kts 204°
2026-05-06 19:08 51.15718 -0.17495 220 ft 7 kts 170°
2026-05-06 19:08 51.15669 -0.17480 215 ft 7 kts 169°
2026-05-06 19:08 51.15620 -0.17466 213 ft 7 kts 169°
2026-05-06 19:08 51.15581 -0.17455 217 ft 0 kts 169°
2026-05-06 19:09 51.15574 -0.17453 220 ft 6 kts 174°
2026-05-06 19:09 51.15549 -0.17470 217 ft 0 kts 210°
2026-05-06 19:09 51.15546 -0.17477 219 ft 2 kts 233°
2026-05-06 19:09 51.15534 -0.17558 215 ft 19 kts 256°
2026-05-06 19:10 51.15504 -0.17776 216 ft 20 kts 258°
2026-05-06 19:10 51.15477 -0.17980 218 ft 16 kts 258°
2026-05-06 19:10 51.15456 -0.18123 218 ft 12 kts 256°
2026-05-06 19:10 51.15435 -0.18247 216 ft 10 kts 240°
2026-05-06 19:11 51.15389 -0.18271 216 ft 7 kts 180°
2026-05-06 19:11 51.15341 -0.18258 213 ft 7 kts 168°
2026-05-06 19:11 51.15286 -0.18240 216 ft 8 kts 168°
2026-05-06 19:11 51.15230 -0.18221 215 ft 8 kts 168°
2026-05-06 19:12 51.15204 -0.18220 214 ft 2 kts 202°
2026-05-06 19:12 51.15192 -0.18260 217 ft 6 kts 255°
2026-05-06 19:12 51.15178 -0.18361 216 ft 10 kts 258°
2026-05-06 19:12 51.15164 -0.18470 216 ft 10 kts 258°
2026-05-06 19:13 51.15149 -0.18582 210 ft 10 kts 258°
2026-05-06 19:13 51.15134 -0.18697 209 ft 11 kts 257°
2026-05-06 19:13 51.15118 -0.18813 213 ft 11 kts 257°
2026-05-06 19:13 51.15102 -0.18929 214 ft 11 kts 259°
2026-05-06 19:14 51.15088 -0.19045 218 ft 11 kts 258°
2026-05-06 19:14 51.15072 -0.19161 218 ft 11 kts 258°
2026-05-06 19:14 51.15057 -0.19276 219 ft 11 kts 258°
2026-05-06 19:14 51.15041 -0.19392 217 ft 11 kts 257°
2026-05-06 19:15 51.15025 -0.19507 218 ft 11 kts 257°
2026-05-06 19:15 51.15009 -0.19623 217 ft 11 kts 257°
2026-05-06 19:15 51.14992 -0.19739 211 ft 11 kts 257°
2026-05-06 19:15 51.14976 -0.19854 216 ft 11 kts 257°
2026-05-06 19:16 51.14960 -0.19970 210 ft 11 kts 258°
2026-05-06 19:16 51.14944 -0.20086 216 ft 11 kts 258°
2026-05-06 19:16 51.14928 -0.20202 216 ft 11 kts 257°
2026-05-06 19:16 51.14913 -0.20316 218 ft 11 kts 259°
2026-05-06 19:17 51.14898 -0.20433 218 ft 11 kts 257°
2026-05-06 19:17 51.14882 -0.20549 216 ft 11 kts 258°
2026-05-06 19:17 51.14868 -0.20666 213 ft 11 kts 259°
2026-05-06 19:17 51.14850 -0.20782 210 ft 11 kts 256°
2026-05-06 19:18 51.14833 -0.20897 213 ft 11 kts 256°
2026-05-06 19:18 51.14816 -0.21013 213 ft 11 kts 257°
2026-05-06 19:18 51.14798 -0.21129 217 ft 11 kts 253°
2026-05-06 19:18 51.14775 -0.21242 209 ft 11 kts 252°
2026-05-06 19:19 51.14760 -0.21340 211 ft 8 kts 257°
2026-05-06 19:19 51.14748 -0.21384 214 ft 0 kts 226°
2026-05-06 19:20 51.14741 -0.21387 212 ft 2 kts 201°
2026-05-06 19:20 51.14701 -0.21390 211 ft 17 kts 173°
2026-05-06 19:20 51.14593 -0.21310 217 ft 15 kts 158°
2026-05-06 19:20 51.14523 -0.21196 217 ft 16 kts 103°
2026-05-06 19:21 51.14582 -0.20688 216 ft 97 kts 76°
2026-05-06 19:21 51.14817 -0.19067 353 ft 192 kts 79°
2026-05-06 19:21 51.15109 -0.16943 1769 ft 198 kts 75°
2026-05-06 19:21 51.15425 -0.14692 2329 ft 220 kts 75°
2026-05-06 19:22 51.15771 -0.12196 2635 ft 246 kts 76°
2026-05-06 19:22 51.16141 -0.09490 3347 ft 254 kts 76°
2026-05-06 19:22 51.16523 -0.06711 4141 ft 260 kts 75°
2026-05-06 19:22 51.16900 -0.03864 4948 ft 264 kts 80°
2026-05-06 19:23 51.16976 -0.00906 5673 ft 268 kts 90°
2026-05-06 19:23 51.16881 0.02074 6014 ft 273 kts 92°
2026-05-06 19:23 51.16780 0.05138 5995 ft 278 kts 92°
2026-05-06 19:23 51.16701 0.08203 5982 ft 275 kts 91°
2026-05-06 19:24 51.16635 0.11231 5970 ft 272 kts 91°
2026-05-06 19:24 51.16576 0.14202 5976 ft 272 kts 91°
2026-05-06 19:24 51.16539 0.17220 5994 ft 273 kts 89°
2026-05-06 19:24 51.16550 0.20244 6025 ft 274 kts 89°
2026-05-06 19:25 51.16565 0.23286 5985 ft 274 kts 89°
2026-05-06 19:25 51.16575 0.26312 5970 ft 273 kts 89°
2026-05-06 19:25 51.16581 0.29324 5968 ft 272 kts 89°
2026-05-06 19:25 51.16585 0.32341 5978 ft 272 kts 89°
2026-05-06 19:26 51.16590 0.35363 5971 ft 273 kts 89°
2026-05-06 19:26 51.16594 0.38386 5982 ft 273 kts 89°
2026-05-06 19:26 51.16597 0.41409 6006 ft 271 kts 89°
2026-05-06 19:26 51.16599 0.44381 6372 ft 267 kts 89°
2026-05-06 19:27 51.16600 0.47374 6844 ft 275 kts 89°
2026-05-06 19:27 51.16601 0.50407 7352 ft 280 kts 89°
2026-05-06 19:27 51.16600 0.53514 8147 ft 281 kts 89°
2026-05-06 19:27 51.16599 0.56669 8867 ft 287 kts 88°
2026-05-06 19:28 51.16597 0.59885 9589 ft 292 kts 89°
2026-05-06 19:28 51.16594 0.63147 10275 ft 298 kts 89°
2026-05-06 19:28 51.16591 0.66501 10844 ft 307 kts 89°
2026-05-06 19:28 51.16586 0.69939 11580 ft 314 kts 89°
2026-05-06 19:29 51.16580 0.73434 12475 ft 317 kts 89°
2026-05-06 19:29 51.16573 0.76959 13410 ft 320 kts 89°
2026-05-06 19:29 51.16565 0.80539 14231 ft 326 kts 89°
2026-05-06 19:29 51.16555 0.84178 15046 ft 330 kts 89°
2026-05-06 19:30 51.16545 0.87809 15881 ft 334 kts 89°
2026-05-06 19:30 51.16532 0.91528 16717 ft 338 kts 89°
2026-05-06 19:30 51.16512 0.95347 16837 ft 349 kts 91°
2026-05-06 19:30 51.16410 0.99198 16848 ft 346 kts 93°
2026-05-06 19:31 51.16266 1.03004 16844 ft 342 kts 93°
2026-05-06 19:31 51.16114 1.06769 16847 ft 339 kts 93°
2026-05-06 19:31 51.15821 1.14296 17006 ft 345 kts 93°
2026-05-06 19:32 51.15678 1.18100 17084 ft 343 kts 93°
2026-05-06 19:32 51.15538 1.21885 17253 ft 342 kts 93°
2026-05-06 19:32 51.15400 1.25643 17830 ft 339 kts 93°
2026-05-06 19:32 51.15264 1.29337 18603 ft 338 kts 93°
2026-05-06 19:33 51.15123 1.33125 19317 ft 338 kts 93°
2026-05-06 19:33 51.14987 1.36795 20027 ft 336 kts 93°
2026-05-06 19:33 51.14848 1.40494 20767 ft 333 kts 93°
2026-05-06 19:33 51.14710 1.44159 21505 ft 330 kts 94°
2026-05-06 19:34 51.14572 1.47777 22268 ft 325 kts 94°
2026-05-06 19:34 51.14435 1.51354 22918 ft 325 kts 94°
2026-05-06 19:34 51.14292 1.55033 23003 ft 343 kts 94°
2026-05-06 19:34 51.14140 1.58929 23026 ft 362 kts 94°
2026-05-06 19:35 51.13979 1.63010 23007 ft 372 kts 94°
2026-05-06 19:35 51.13816 1.67122 23003 ft 373 kts 94°
2026-05-06 19:35 51.13651 1.71263 23003 ft 376 kts 94°
2026-05-06 19:35 51.13486 1.75358 22987 ft 377 kts 94°
2026-05-06 19:36 51.13316 1.79528 22981 ft 377 kts 94°
2026-05-06 19:36 51.13145 1.83697 23001 ft 378 kts 94°
2026-05-06 19:36 51.12972 1.87871 23001 ft 378 kts 94°
2026-05-06 19:36 51.12797 1.92044 22986 ft 378 kts 94°
2026-05-06 19:37 51.12622 1.96214 22996 ft 378 kts 95°
2026-05-06 19:37 51.12444 2.00381 22983 ft 377 kts 95°
2026-05-06 19:37 51.12265 2.04545 22993 ft 376 kts 95°
2026-05-06 19:37 51.12086 2.08693 22984 ft 376 kts 95°
2026-05-06 19:38 51.11905 2.12837 22982 ft 375 kts 95°
2026-05-06 19:38 51.11726 2.16921 22990 ft 374 kts 95°
2026-05-06 19:38 51.11543 2.21051 22981 ft 374 kts 95°
2026-05-06 19:38 51.11359 2.25176 22994 ft 374 kts 95°
2026-05-06 19:39 51.11173 2.29297 22977 ft 373 kts 95°
2026-05-06 19:39 51.10987 2.33415 22987 ft 373 kts 95°
2026-05-06 19:39 51.10799 2.37528 22985 ft 373 kts 95°
2026-05-06 19:39 51.10609 2.41643 22971 ft 373 kts 95°
2026-05-06 19:40 51.10418 2.45767 22987 ft 373 kts 95°
2026-05-06 19:40 51.10225 2.49891 22983 ft 374 kts 95°
2026-05-06 19:40 51.10032 2.54018 22985 ft 375 kts 95°
2026-05-06 19:40 51.09839 2.58103 22967 ft 375 kts 95°
2026-05-06 19:41 51.09637 2.62241 22983 ft 375 kts 97°
2026-05-06 19:41 51.09177 2.66320 22921 ft 376 kts 107°
2026-05-06 19:41 51.08281 2.70227 22625 ft 377 kts 117°
2026-05-06 19:41 51.07069 2.73906 22520 ft 378 kts 120°
2026-05-06 19:42 51.05779 2.77680 22482 ft 399 kts 120°
2026-05-06 19:42 51.04425 2.81642 22041 ft 412 kts 120°
2026-05-06 19:42 51.03065 2.85640 21503 ft 411 kts 119°
2026-05-06 19:42 51.01715 2.89625 20988 ft 409 kts 119°
2026-05-06 19:43 51.00372 2.93597 20480 ft 407 kts 119°
2026-05-06 19:43 50.99039 2.97544 19983 ft 405 kts 119°
2026-05-06 19:43 50.97730 3.01420 19481 ft 403 kts 119°
2026-05-06 19:43 50.96410 3.05325 19007 ft 401 kts 119°
2026-05-06 19:44 50.95092 3.09216 18524 ft 399 kts 118°
2026-05-06 19:44 50.93784 3.13070 18021 ft 396 kts 118°
2026-05-06 19:44 50.92480 3.16910 17480 ft 394 kts 118°
2026-05-06 19:44 50.91184 3.20719 16942 ft 392 kts 118°
2026-05-06 19:45 50.89891 3.24512 16418 ft 390 kts 118°
2026-05-06 19:45 50.88605 3.28281 15911 ft 388 kts 118°
2026-05-06 19:45 50.87325 3.32025 15408 ft 386 kts 118°
2026-05-06 19:45 50.86049 3.35750 14913 ft 384 kts 118°
2026-05-06 19:46 50.84779 3.39452 14401 ft 382 kts 118°
2026-05-06 19:46 50.83531 3.43083 13943 ft 380 kts 118°
2026-05-06 19:46 50.82270 3.46745 13418 ft 378 kts 119°
2026-05-06 19:46 50.81010 3.50393 12894 ft 377 kts 118°
2026-05-06 19:47 50.79758 3.54017 12374 ft 375 kts 118°
2026-05-06 19:47 50.78519 3.57604 12034 ft 368 kts 118°
2026-05-06 19:47 50.77309 3.61104 11940 ft 359 kts 118°
2026-05-06 19:47 50.76102 3.64591 11948 ft 362 kts 118°
2026-05-06 19:48 50.74910 3.68077 11871 ft 358 kts 115°
2026-05-06 19:48 50.74060 3.71719 11746 ft 356 kts 105°
2026-05-06 19:48 50.73435 3.75480 11775 ft 353 kts 103°
2026-05-06 19:48 50.72868 3.79239 11846 ft 353 kts 102°
2026-05-06 19:49 50.72304 3.83055 11431 ft 361 kts 102°
2026-05-06 19:49 50.71734 3.86919 10921 ft 361 kts 102°
2026-05-06 19:49 50.71173 3.90705 10411 ft 348 kts 102°
2026-05-06 19:49 50.70629 3.94349 9920 ft 336 kts 102°
2026-05-06 19:50 50.70096 3.97889 9388 ft 326 kts 102°
2026-05-06 19:50 50.69577 4.01317 8845 ft 317 kts 102°
2026-05-06 19:50 50.69069 4.04660 8310 ft 310 kts 102°
2026-05-06 19:50 50.68571 4.07929 7794 ft 303 kts 102°
2026-05-06 19:51 50.68082 4.11130 7281 ft 298 kts 102°
2026-05-06 19:51 50.67600 4.14277 6784 ft 293 kts 102°
2026-05-06 19:51 50.67124 4.17380 6276 ft 289 kts 102°
2026-05-06 19:51 50.66659 4.20408 6000 ft 278 kts 102°
2026-05-06 19:52 50.66206 4.23326 5955 ft 279 kts 102°
2026-05-06 19:52 50.65742 4.26297 5937 ft 278 kts 102°
2026-05-06 19:52 50.65285 4.29231 5933 ft 276 kts 102°
2026-05-06 19:52 50.64827 4.32166 5935 ft 276 kts 102°
2026-05-06 19:53 50.64367 4.35107 5942 ft 277 kts 102°
2026-05-06 19:53 50.63906 4.38051 5942 ft 277 kts 102°
2026-05-06 19:53 50.63445 4.41000 5940 ft 278 kts 102°
2026-05-06 19:53 50.62983 4.43954 5941 ft 278 kts 102°
2026-05-06 19:54 50.62522 4.46908 5909 ft 278 kts 102°
2026-05-06 19:54 50.62063 4.49841 5578 ft 281 kts 102°
2026-05-06 19:54 50.61594 4.52820 5110 ft 279 kts 102°
2026-05-06 19:54 50.61123 4.55756 4650 ft 274 kts 102°
2026-05-06 19:55 50.60656 4.58625 4170 ft 268 kts 102°
2026-05-06 19:55 50.60196 4.61443 3683 ft 263 kts 102°
2026-05-06 19:55 50.59743 4.64209 3238 ft 259 kts 102°
2026-05-06 19:55 50.59298 4.66888 3002 ft 246 kts 102°
2026-05-06 19:56 50.58863 4.69430 3003 ft 245 kts 102°
2026-05-06 19:56 50.58417 4.72020 3040 ft 245 kts 102°
2026-05-06 19:56 50.57972 4.74601 3004 ft 244 kts 102°
2026-05-06 19:56 50.57298 4.77021 2986 ft 245 kts 126°
2026-05-06 19:57 50.55964 4.78592 2984 ft 246 kts 160°
2026-05-06 19:57 50.54277 4.78811 3001 ft 248 kts 193°
2026-05-06 19:57 50.52759 4.77598 2989 ft 245 kts 226°
2026-05-06 19:57 50.51907 4.75366 2994 ft 239 kts 259°
2026-05-06 19:58 50.51946 4.72801 3006 ft 237 kts 287°
2026-05-06 19:58 50.52212 4.70228 2989 ft 243 kts 272°
2026-05-06 19:58 50.52013 4.67584 3002 ft 243 kts 262°
2026-05-06 19:58 50.51592 4.65110 2975 ft 224 kts 255°
2026-05-06 19:59 50.51091 4.62928 2882 ft 203 kts 250°
2026-05-06 19:59 50.50528 4.60938 2576 ft 193 kts 248°
2026-05-06 19:59 50.49986 4.59086 2324 ft 180 kts 249°
2026-05-06 19:59 50.49490 4.57381 2057 ft 165 kts 248°
2026-05-06 20:00 50.49014 4.55731 1853 ft 167 kts 248°
2026-05-06 20:00 50.48537 4.54083 1635 ft 169 kts 248°
2026-05-06 20:00 50.48055 4.52427 1386 ft 165 kts 246°
2026-05-06 20:00 50.47595 4.50814 1152 ft 159 kts 249°
2026-05-06 20:01 50.47132 4.49259 911 ft 159 kts 249°
2026-05-06 20:01 50.46670 4.47685 719 ft 159 kts 252°
2026-05-06 20:01 50.46223 4.46102 640 ft 154 kts 248°
2026-05-06 20:01 50.45827 4.44719 641 ft 96 kts 247°
2026-05-06 20:02 50.45756 4.44466 642 ft 2 kts 245°
2026-05-06 20:02 50.45717 4.44338 644 ft 28 kts 244°
2026-05-06 20:02 50.45637 4.44067 642 ft 16 kts 250°
2026-05-06 20:02 50.45684 4.44006 643 ft 10 kts 20°
2026-05-06 20:03 50.45736 4.44075 642 ft 10 kts 50°
2026-05-06 20:03 50.45754 4.44115 642 ft 0 kts 53°
2026-05-06 20:03 50.45770 4.44149 642 ft 14 kts 54°
2026-05-06 20:03 50.45791 4.44194 642 ft 0 kts 52°
2026-05-06 20:04 50.45809 4.44231 641 ft 7 kts 52°
2026-05-06 20:04 50.45824 4.44262 641 ft 0 kts 52°
2026-05-06 20:04 50.45828 4.44268 641 ft 1 kts 52°
2026-05-06 20:04 50.45835 4.44284 643 ft 2 kts 53°
2026-05-06 20:05 50.45847 4.44309 641 ft 3 kts 53°
2026-05-06 20:05 50.45863 4.44343 645 ft 4 kts 53°
2026-05-06 20:05 50.45884 4.44387 640 ft 5 kts 53°
2026-05-06 20:05 50.45907 4.44438 643 ft 6 kts 56°
2026-05-06 20:06 50.45932 4.44506 643 ft 9 kts 64°
2026-05-06 20:06 50.45974 4.44638 641 ft 18 kts 64°
2026-05-06 20:06 50.46027 4.44814 640 ft 18 kts 65°
2026-05-06 20:06 50.46080 4.44990 639 ft 18 kts 59°
2026-05-06 20:07 50.46133 4.45165 635 ft 18 kts 68°
2026-05-06 20:07 50.46184 4.45344 638 ft 18 kts 66°
2026-05-06 20:07 50.46235 4.45523 636 ft 18 kts 66°
2026-05-06 20:07 50.46285 4.45699 634 ft 18 kts 66°
2026-05-06 20:08 50.46336 4.45877 630 ft 18 kts 65°
2026-05-06 20:08 50.46388 4.46056 628 ft 18 kts 65°
2026-05-06 20:08 50.46440 4.46234 633 ft 18 kts 65°
2026-05-06 20:08 50.46493 4.46411 632 ft 18 kts 65°
2026-05-06 20:09 50.46546 4.46588 633 ft 18 kts 66°
2026-05-06 20:09 50.46578 4.46704 629 ft 0 kts 66°
2026-05-06 20:09 50.46594 4.46767 625 ft 8 kts 66°
2026-05-06 20:09 50.46601 4.46788 628 ft 0 kts 59°
2026-05-06 20:10 50.46603 4.46792 628 ft 2 kts 51°
2026-05-06 20:10 50.46632 4.46806 630 ft 11 kts
2026-05-06 20:10 50.46712 4.46793 628 ft 12 kts
2026-05-06 20:10 50.46784 4.46805 623 ft 1 kts 355°